�������l�o���
Date,Time,MP-1(��Sv/h),MP-2(��Sv/h),MP-3(��Sv/h),MP-4(��Sv/h),MP-5(��Sv/h),MP-6(��Sv/h),MP-7(��Sv/h),����,����(m/s),���J
2024/03/03,00:00,0.145,0.129,0.206,0.195,0.204,0.115,0.075,��,2.1,��
2024/03/03,00:10,0.146,0.129,0.206,0.195,0.206,0.115,0.076,���쐼,1.1,��
2024/03/03,00:20,0.145,0.129,0.206,0.195,0.205,0.116,0.076,�k�k��,0.9,��
2024/03/03,00:30,0.145,0.129,0.205,0.196,0.205,0.115,0.075,��,0.9,��
2024/03/03,00:40,0.145,0.129,0.206,0.195,0.203,0.114,0.076,��쓌,1.1,��
2024/03/03,00:50,0.145,0.129,0.206,0.195,0.204,0.115,0.075,��쐼,1.9,��
2024/03/03,01:00,0.146,0.129,0.206,0.196,0.205,0.116,0.075,���쐼,2.2,��
2024/03/03,01:10,0.145,0.129,0.206,0.195,0.205,0.116,0.075,���쐼,1.9,��
2024/03/03,01:20,0.146,0.130,0.206,0.196,0.204,0.115,0.075,�k��,0.6,��
2024/03/03,01:30,0.144,0.129,0.207,0.195,0.203,0.116,0.076,���쐼,1.4,��
2024/03/03,01:40,0.145,0.130,0.206,0.196,0.203,0.116,0.076,��,2.5,��
2024/03/03,01:50,0.145,0.129,0.205,0.196,0.203,0.115,0.075,�k��,1.3,��
2024/03/03,02:00,0.145,0.130,0.205,0.195,0.203,0.114,0.076,���k��,3.3,��
2024/03/03,02:10,0.145,0.129,0.207,0.196,0.203,0.116,0.075,�k��,5.4,��
2024/03/03,02:20,0.145,0.130,0.206,0.195,0.203,0.115,0.075,�k��,5.1,��
2024/03/03,02:30,0.145,0.129,0.206,0.195,0.203,0.115,0.075,�k��,2.7,��
2024/03/03,02:40,0.145,0.129,0.206,0.195,0.204,0.116,0.075,���k��,2.3,��
2024/03/03,02:50,0.145,0.129,0.205,0.196,0.203,0.116,0.075,�k�k��,3.2,��
2024/03/03,03:00,0.146,0.129,0.207,0.195,0.204,0.115,0.075,�k��,5.2,��
2024/03/03,03:10,0.145,0.129,0.206,0.195,0.205,0.115,0.075,�k��,7.0,��
2024/03/03,03:20,0.146,0.129,0.207,0.195,0.204,0.116,0.075,�k��,7.6,��
2024/03/03,03:30,0.145,0.129,0.207,0.196,0.205,0.116,0.075,���k��,8.1,��
2024/03/03,03:40,0.145,0.130,0.206,0.195,0.205,0.117,0.076,���k��,8.4,��
2024/03/03,03:50,0.146,0.129,0.206,0.195,0.205,0.115,0.076,�k��,7.0,��
2024/03/03,04:00,0.145,0.129,0.206,0.195,0.204,0.116,0.076,�k��,6.0,��
2024/03/03,04:10,0.145,0.129,0.206,0.196,0.204,0.116,0.075,���k��,4.8,��
2024/03/03,04:20,0.145,0.129,0.206,0.195,0.203,0.115,0.075,�k��,4.0,��
2024/03/03,04:30,0.145,0.129,0.207,0.196,0.205,0.116,0.076,�k��,4.4,��
2024/03/03,04:40,0.146,0.129,0.206,0.196,0.204,0.115,0.075,�k��,2.4,��
2024/03/03,04:50,0.145,0.129,0.207,0.195,0.203,0.115,0.075,�k,1.6,��
2024/03/03,05:00,0.145,0.129,0.204,0.195,0.204,0.115,0.076,�k,1.2,��
2024/03/03,05:10,0.146,0.129,0.206,0.195,0.203,0.115,0.075,���k��,2.0,��
2024/03/03,05:20,0.146,0.129,0.205,0.195,0.203,0.115,0.076,��,3.0,��
2024/03/03,05:30,0.145,0.130,0.207,0.196,0.204,0.116,0.076,�k�k��,0.9,��
2024/03/03,05:40,0.145,0.130,0.207,0.195,0.205,0.115,0.076,��,1.2,��
2024/03/03,05:50,0.146,0.129,0.207,0.196,0.204,0.115,0.075,���k��,2.2,��
2024/03/03,06:00,0.145,0.129,0.206,0.195,0.205,0.116,0.075,��,5.2,��
2024/03/03,06:10,0.145,0.129,0.206,0.195,0.205,0.115,0.075,��,6.6,��
2024/03/03,06:20,0.146,0.129,0.205,0.195,0.204,0.116,0.075,��,9.5,��
2024/03/03,06:30,0.145,0.129,0.206,0.195,0.203,0.116,0.075,���k��,7.7,��
2024/03/03,06:40,0.144,0.130,0.206,0.195,0.204,0.115,0.075,�k��,4.3,��
2024/03/03,06:50,0.146,0.129,0.206,0.196,0.205,0.115,0.075,���k��,2.1,��
2024/03/03,07:00,0.145,0.129,0.206,0.196,0.206,0.115,0.075,�k��,1.1,��
2024/03/03,07:10,0.146,0.130,0.207,0.194,0.204,0.115,0.076,��쓌,0.9,��
2024/03/03,07:20,0.146,0.129,0.205,0.196,0.205,0.115,0.074,��쐼,3.5,��
2024/03/03,07:30,0.145,0.129,0.206,0.195,0.204,0.115,0.075,��쐼,3.1,��
2024/03/03,07:40,0.145,0.129,0.206,0.195,0.204,0.115,0.076,��쐼,1.5,��
2024/03/03,07:50,0.145,0.130,0.206,0.195,0.205,0.116,0.076,��쐼,2.0,��
2024/03/03,08:00,0.145,0.129,0.206,0.194,0.204,0.115,0.076,��쐼,2.6,��
2024/03/03,08:10,0.145,0.129,0.206,0.195,0.206,0.116,0.076,��쐼,2.5,��
2024/03/03,08:20,0.146,0.128,0.206,0.196,0.203,0.115,0.076,��쐼,1.6,��
2024/03/03,08:30,0.146,0.129,0.205,0.195,0.205,0.115,0.076,��쐼,2.6,��
2024/03/03,08:40,0.146,0.130,0.206,0.195,0.204,0.116,0.075,�쐼,2.5,��
2024/03/03,08:50,0.146,0.128,0.205,0.196,0.204,0.116,0.075,���쐼,3.6,��
2024/03/03,09:00,0.145,0.128,0.205,0.195,0.205,0.115,0.075,���쐼,4.0,��
2024/03/03,09:10,0.145,0.129,0.206,0.195,0.203,0.115,0.075,�쐼,4.2,��
2024/03/03,09:20,0.145,0.129,0.206,0.196,0.205,0.116,0.075,�쐼,3.3,��
2024/03/03,09:30,0.145,0.129,0.206,0.196,0.205,0.116,0.075,�쓌,3.8,��
2024/03/03,09:40,0.145,0.130,0.206,0.196,0.204,0.115,0.076,��쓌,4.7,��
2024/03/03,09:50,0.145,0.129,0.205,0.196,0.204,0.115,0.076,��쓌,4.3,��
2024/03/03,10:00,0.146,0.129,0.206,0.194,0.204,0.115,0.076,��쓌,5.3,��
2024/03/03,10:10,0.145,0.129,0.208,0.195,0.205,0.115,0.076,��쓌,5.5,��
2024/03/03,10:20,0.144,0.128,0.206,0.196,0.205,0.116,0.076,��쓌,6.2,��
2024/03/03,10:30,0.146,0.129,0.206,0.195,0.205,0.115,0.076,��쓌,5.7,��
2024/03/03,10:40,0.145,0.129,0.206,0.196,0.204,0.116,0.075,��쓌,5.4,��
2024/03/03,10:50,0.145,0.129,0.205,0.195,0.206,0.116,0.076,��쓌,6.4,��
2024/03/03,11:00,0.144,0.129,0.205,0.195,0.206,0.116,0.076,��쓌,6.3,��
2024/03/03,11:10,0.145,0.129,0.206,0.195,0.205,0.115,0.075,��쓌,6.6,��
2024/03/03,11:20,0.144,0.129,0.207,0.197,0.207,0.117,0.075,��쓌,6.6,��
2024/03/03,11:30,0.146,0.129,0.205,0.195,0.204,0.115,0.076,��쓌,6.6,��
2024/03/03,11:40,0.145,0.130,0.206,0.196,0.205,0.115,0.076,��쓌,6.4,��
2024/03/03,11:50,0.146,0.129,0.205,0.197,0.204,0.116,0.076,��쓌,6.5,��
2024/03/03,12:00,0.146,0.129,0.207,0.196,0.206,0.116,0.076,��쓌,5.9,��
2024/03/03,12:10,0.145,0.130,0.205,0.196,0.204,0.116,0.076,��쓌,5.2,��
2024/03/03,12:20,0.145,0.129,0.205,0.196,0.206,0.116,0.075,��쓌,5.3,��
2024/03/03,12:30,0.145,0.129,0.206,0.195,0.205,0.116,0.075,��쓌,5.3,��
2024/03/03,12:40,0.146,0.129,0.206,0.196,0.205,0.116,0.076,���쓌,2.8,��
2024/03/03,12:50,0.146,0.130,0.206,0.197,0.205,0.116,0.076,��쐼,2.0,��
2024/03/03,13:00,0.146,0.130,0.206,0.195,0.204,0.116,0.076,�쐼,3.6,��
2024/03/03,13:10,0.147,0.130,0.206,0.197,0.205,0.117,0.075,�쐼,5.1,��
2024/03/03,13:20,0.146,0.129,0.207,0.196,0.204,0.117,0.076,���쐼,2.1,��
2024/03/03,13:30,0.145,0.130,0.206,0.197,0.207,0.116,0.075,���쐼,3.1,��
2024/03/03,13:40,0.146,0.129,0.206,0.195,0.204,0.117,0.075,�쐼,3.0,��
2024/03/03,13:50,0.146,0.130,0.207,0.197,0.206,0.116,0.076,�쐼,2.8,��
2024/03/03,14:00,0.146,0.130,0.206,0.196,0.205,0.117,0.075,��쐼,3.2,��
2024/03/03,14:10,0.144,0.130,0.207,0.197,0.207,0.116,0.075,��,1.7,��
2024/03/03,14:20,0.146,0.131,0.206,0.196,0.204,0.116,0.076,���쐼,4.3,��
2024/03/03,14:30,0.146,0.129,0.208,0.198,0.205,0.116,0.076,���쐼,3.0,��
2024/03/03,14:40,0.145,0.130,0.206,0.196,0.205,0.116,0.076,�쐼,3.5,��
2024/03/03,14:50,0.146,0.130,0.207,0.196,0.205,0.117,0.076,�쐼,2.8,��
2024/03/03,15:00,0.145,0.129,0.206,0.197,0.205,0.116,0.075,��,6.0,��
2024/03/03,15:10,0.146,0.131,0.207,0.196,0.206,0.115,0.076,��,7.9,��
2024/03/03,15:20,0.145,0.129,0.208,0.196,0.205,0.116,0.076,��쓌,9.2,��
2024/03/03,15:30,0.146,0.130,0.207,0.197,0.207,0.116,0.076,��쓌,9.2,��
2024/03/03,15:40,0.145,0.130,0.207,0.196,0.204,0.115,0.076,��,7.4,��
2024/03/03,15:50,0.146,0.129,0.206,0.198,0.206,0.115,0.075,��쓌,10.6,��
2024/03/03,16:00,0.144,0.131,0.207,0.197,0.206,0.116,0.076,��,8.7,��
2024/03/03,16:10,0.145,0.130,0.208,0.197,0.206,0.116,0.076,��쓌,6.4,��
2024/03/03,16:20,0.145,0.129,0.207,0.197,0.206,0.116,0.076,��,7.4,��
2024/03/03,16:30,0.145,0.131,0.207,0.197,0.206,0.115,0.075,��,6.8,��
2024/03/03,16:40,0.146,0.130,0.206,0.196,0.205,0.117,0.076,��,7.6,��
2024/03/03,16:50,0.147,0.130,0.208,0.198,0.206,0.117,0.076,��,7.3,��
2024/03/03,17:00,0.146,0.130,0.207,0.196,0.205,0.116,0.076,��,6.2,��
2024/03/03,17:10,0.145,0.131,0.207,0.197,0.206,0.115,0.076,��,4.5,��
2024/03/03,17:20,0.146,0.129,0.208,0.197,0.206,0.116,0.076,��,5.8,��
2024/03/03,17:30,0.145,0.130,0.207,0.197,0.205,0.116,0.075,�쐼,4.0,��
2024/03/03,17:40,0.146,0.130,0.206,0.196,0.206,0.116,0.075,���k��,4.4,��
2024/03/03,17:50,0.146,0.131,0.207,0.198,0.206,0.116,0.076,��,3.7,��
2024/03/03,18:00,0.145,0.131,0.206,0.196,0.206,0.116,0.076,���k��,5.1,��
2024/03/03,18:10,0.146,0.130,0.207,0.197,0.207,0.116,0.076,���k��,5.7,��
2024/03/03,18:20,0.146,0.130,0.208,0.196,0.206,0.116,0.076,���k��,5.9,��
2024/03/03,18:30,0.145,0.130,0.207,0.197,0.205,0.117,0.075,���k��,6.6,��
2024/03/03,18:40,0.145,0.130,0.207,0.197,0.206,0.116,0.076,���k��,7.5,��
2024/03/03,18:50,0.147,0.129,0.207,0.197,0.205,0.116,0.076,���k��,8.2,��
2024/03/03,19:00,0.145,0.129,0.207,0.198,0.206,0.116,0.076,���k��,8.4,��
2024/03/03,19:10,0.147,0.130,0.208,0.198,0.205,0.116,0.075,��,7.8,��
2024/03/03,19:20,0.147,0.130,0.208,0.197,0.205,0.117,0.077,���k��,8.2,��
2024/03/03,19:30,0.146,0.131,0.208,0.196,0.205,0.117,0.075,��,8.4,��
2024/03/03,19:40,0.147,0.131,0.207,0.196,0.206,0.116,0.076,��,8.1,��
2024/03/03,19:50,0.147,0.130,0.207,0.196,0.205,0.116,0.076,���k��,6.5,��
2024/03/03,20:00,0.147,0.130,0.208,0.197,0.206,0.116,0.076,��,6.6,��
2024/03/03,20:10,0.146,0.131,0.207,0.197,0.206,0.117,0.076,��,7.9,��
2024/03/03,20:20,0.146,0.130,0.208,0.197,0.206,0.117,0.076,���k��,9.6,��
2024/03/03,20:30,0.146,0.131,0.207,0.197,0.206,0.117,0.075,��,13.4,�L
2024/03/03,20:40,0.146,0.129,0.207,0.196,0.206,0.116,0.077,��,9.8,��
2024/03/03,20:50,0.145,0.130,0.207,0.198,0.206,0.116,0.075,��,12.2,��
2024/03/03,21:00,0.147,0.130,0.207,0.198,0.205,0.117,0.076,��,11.2,��
2024/03/03,21:10,0.147,0.130,0.208,0.197,0.206,0.117,0.075,��,12.0,��
2024/03/03,21:20,0.145,0.131,0.209,0.198,0.206,0.116,0.076,���k��,11.4,��
2024/03/03,21:30,0.147,0.129,0.209,0.197,0.205,0.117,0.076,��,13.7,��
2024/03/03,21:40,0.147,0.130,0.208,0.197,0.206,0.117,0.076,��,11.7,��
2024/03/03,21:50,0.146,0.130,0.208,0.197,0.206,0.117,0.076,���k��,11.4,��
2024/03/03,22:00,0.146,0.131,0.209,0.197,0.206,0.117,0.076,���k��,11.2,��
2024/03/03,22:10,0.147,0.132,0.209,0.197,0.206,0.117,0.077,���k��,10.6,��
2024/03/03,22:20,0.146,0.130,0.208,0.198,0.206,0.117,0.076,���k��,9.2,��
2024/03/03,22:30,0.148,0.130,0.207,0.198,0.205,0.117,0.076,��,12.3,��
2024/03/03,22:40,0.147,0.131,0.209,0.199,0.206,0.116,0.076,���k��,11.4,��
2024/03/03,22:50,0.146,0.130,0.208,0.197,0.206,0.117,0.076,��,10.3,��
2024/03/03,23:00,0.147,0.131,0.208,0.197,0.206,0.116,0.077,��,9.2,��
2024/03/03,23:10,0.147,0.131,0.208,0.197,0.206,0.116,0.077,��,9.5,��
2024/03/03,23:20,0.147,0.130,0.208,0.198,0.206,0.117,0.076,���k��,10.3,�L
2024/03/03,23:30,0.147,0.130,0.209,0.198,0.206,0.118,0.077,��,8.7,�L
2024/03/03,23:40,0.147,0.131,0.208,0.197,0.206,0.117,0.077,���k��,7.7,�L
2024/03/03,23:50,0.146,0.130,0.209,0.199,0.205,0.117,0.076,���k��,4.8,��
